Date_and_time,latitude,longitude,wind_speed,RelWindDirFrom,WindDirFrom,air_pressure,air_temperature,relative_humidity,Temp,platform_speed_wrt_ground,air_pressure_at_mean_sea_level,platform_orientation
2018-08-15 23:40,52.63997,-98.3562816666667,10.8,12.4,189,979.05,23.8,60,19.33,3.0,1004.19,104.6
2018-08-15 23:50,52.6398833333333,-98.343005,10.9,12.5,186,979.09,23.5,62,19.23,2.9,1004.24,104.6
2018-08-16 00:00,52.637255,-98.32659,12.3,14.6,184,979.09,23.4,61,19.27,3.7,1004.23,92.5
2018-08-16 00:10,52.63703,-98.326645,10.0,13.4,203,979.12,23.5,60,19.27,0.1,1004.26,92.5
2018-08-16 00:20,52.6369966666667,-98.3266983333333,9.2,10.5,209,979.19,23.4,61,19.24,0.0,1004.35,92.5
2018-08-16 00:30,52.637005,-98.326725,8.4,9.7,216,979.19,23.6,60,19.25,0.0,1004.39,92.5
2018-08-16 00:40,52.6368616666667,-98.32682,8.3,9.3,216,979.16,23.9,58,19.29,0.1,1004.41,92.5
2018-08-16 00:50,52.631635,-98.2873966666667,10.3,13.2,154,979.10,23.4,63,19.28,8.8,1004.42,92.5
2018-08-16 01:00,52.6266166666667,-98.236155,12.9,14.1,150,979.10,22.9,64,19.11,11.3,1004.45,93.2
2018-08-16 01:10,52.6227916666667,-98.184465,12.4,13.4,148,979.11,23.2,63,19.14,11.4,1004.48,93.2
2018-08-16 01:20,52.6198333333333,-98.1329133333333,13.0,14.5,139,979.04,22.4,69,19.25,11.3,1004.47,93.2
2018-08-16 01:30,52.61661,-98.081195,14.5,15.9,143,979.07,21.7,74,19.22,11.4,1004.54,93.2
2018-08-16 01:40,52.6133733333333,-98.0293483333333,14.3,15.5,147,979.19,21.9,71,19.21,11.4,1004.66,93.2
2018-08-16 01:50,52.6106083333333,-97.9771116666667,13.0,15.6,150,979.24,22.6,65,19.21,11.5,1004.69,93.2
2018-08-16 02:00,52.6031966666667,-97.92971,12.6,20.0,155,979.22,22.9,63,19.25,10.7,1004.65,96.3
2018-08-16 02:10,52.5726983333333,-97.9153833333333,18.7,22.6,195,978.92,23.2,60,19.31,11.4,1004.34,96.3
2018-08-16 02:20,52.542425,-97.89967,20.8,22.5,201,979.07,23.9,56,19.16,11.4,1004.45,96.3
2018-08-16 02:30,52.5119816666667,-97.884855,19.9,20.8,202,979.21,23.5,59,19.13,11.4,1004.60,96.3
2018-08-16 02:40,52.4816533333333,-97.87028,18.9,21.0,205,979.37,23.1,61,19.11,11.4,1004.81,96.3
2018-08-16 02:50,52.45096,-97.85872,17.8,19.0,204,979.46,22.6,66,19.26,11.3,1004.94,96.3
2018-08-16 03:00,52.4336783333333,-97.8536583333333,13.2,18.3,215,979.70,22.6,64,19.46,6.3,1005.17,125.1
2018-08-16 03:10,52.4337833333333,-97.853635,9.5,10.9,235,979.76,23.3,58,19.39,0.0,1005.24,125.1
2018-08-16 03:20,52.4337883333333,-97.8536233333333,9.5,11.7,235,979.81,23.4,58,19.38,0.0,1005.32,125.1
2018-08-16 03:30,52.4337816666667,-97.8536316666667,9.8,10.7,233,979.87,23.6,56,19.38,0.0,1005.36,125.1
2018-08-16 03:40,52.43377,-97.8536266666667,7.9,9.3,234,979.98,23.2,60,19.39,0.0,1005.46,125.1
2018-08-16 03:50,52.4337516666667,-97.8536083333333,8.0,9.6,238,980.09,22.8,61,19.41,0.0,1005.57,125.1
2018-08-16 04:00,52.4337533333333,-97.8535666666667,8.0,9.1,241,980.12,22.6,61,19.43,0.0,1005.60,129.5
2018-08-16 04:10,52.4337083333333,-97.8535433333333,7.3,8.9,249,980.13,22.5,62,19.46,0.0,1005.59,129.5
2018-08-16 04:20,52.433715,-97.853545,7.7,9.1,254,980.12,22.3,64,19.47,0.0,1005.60,129.5
2018-08-16 04:30,52.4337033333333,-97.8534983333333,8.1,10.6,256,980.17,22.2,63,19.49,0.0,1005.67,129.5
2018-08-16 04:40,52.4336366666667,-97.8534633333333,9.2,10.9,264,980.25,22.5,62,19.50,0.0,1005.77,129.5
2018-08-16 04:50,52.4336066666667,-97.85349,9.2,10.2,269,980.37,22.4,62,19.51,0.0,1005.89,129.5
2018-08-16 05:00,52.4335766666667,-97.8534383333333,8.8,9.9,278,980.47,22.5,63,19.52,0.0,1005.96,164.7
2018-08-16 05:10,52.4335033333333,-97.853445,11.6,13.1,286,980.47,22.7,61,19.52,0.0,1005.95,164.7
2018-08-16 05:20,52.4334983333333,-97.853435,11.4,13.0,286,980.50,22.8,61,19.52,0.0,1005.97,164.7
2018-08-16 05:30,52.4334816666667,-97.853455,10.7,12.1,288,980.56,22.6,62,19.52,0.0,1006.06,164.7
2018-08-16 05:40,52.433495,-97.8534466666667,10.5,11.5,286,980.61,22.3,64,19.52,0.0,1006.14,164.7
2018-08-16 05:50,52.4334966666667,-97.85343,10.9,12.3,285,980.65,22.0,66,19.51,0.0,1006.20,164.7
2018-08-16 06:00,52.4334816666667,-97.8534366666667,11.8,12.9,286,980.69,21.8,67,19.51,0.0,1006.26,145.4
2018-08-16 06:10,52.4334633333333,-97.8534466666667,12.2,13.4,288,980.71,21.8,66,19.51,0.0,1006.28,145.4
2018-08-16 06:20,52.4334383333333,-97.8534383333333,11.7,12.7,290,980.78,21.8,66,19.52,0.0,1006.36,145.4
2018-08-16 06:30,52.4334516666667,-97.8534133333333,11.9,15.0,291,980.80,21.8,66,19.53,0.0,1006.36,145.4
2018-08-16 06:40,52.4333983333333,-97.8534316666667,12.6,15.5,293,980.84,21.7,66,19.53,0.0,1006.41,145.4
2018-08-16 06:50,52.4333783333333,-97.8534466666667,13.8,15.9,296,980.91,21.7,66,19.53,0.0,1006.48,145.4
2018-08-16 07:00,52.4333316666667,-97.8534616666667,14.0,17.7,295,980.98,21.7,67,19.54,0.0,1006.54,174.0
2018-08-16 07:10,52.4333216666667,-97.8534483333333,14.0,16.4,293,981.20,21.5,68,19.54,0.0,1006.77,174.0
2018-08-16 07:20,52.433325,-97.8534116666667,14.9,19.0,291,981.33,21.4,68,19.55,0.0,1006.93,174.0
2018-08-16 07:30,52.4333016666667,-97.8534433333333,14.2,17.1,295,981.51,21.3,68,19.54,0.0,1007.13,174.0
2018-08-16 07:40,52.4333483333333,-97.8534116666667,13.3,16.0,297,981.60,21.2,69,19.54,0.0,1007.24,174.0
2018-08-16 07:50,52.433385,-97.85336,13.7,16.5,297,981.66,21.1,70,19.52,0.0,1007.32,174.0
2018-08-16 08:00,52.43337,-97.853365,14.9,17.4,297,981.78,20.9,71,19.52,0.0,1007.44,163.1
2018-08-16 08:10,52.4333483333333,-97.8533633333333,15.4,19.2,299,981.90,20.7,73,19.52,0.0,1007.57,163.1
2018-08-16 08:20,52.4333,-97.8534233333333,16.3,21.6,301,981.93,20.6,75,19.51,0.0,1007.61,163.1
2018-08-16 08:30,52.43324,-97.8535216666667,16.3,20.8,309,982.06,20.6,76,19.50,0.0,1007.75,163.1
2018-08-16 08:40,52.4332816666667,-97.8534616666667,16.7,20.3,315,982.18,20.6,76,19.50,0.0,1007.87,163.1
2018-08-16 08:50,52.4332966666667,-97.8534433333333,15.4,18.0,319,982.44,20.4,79,19.49,0.0,1008.14,163.1
2018-08-16 09:00,52.4332366666667,-97.8534766666667,16.2,19.5,325,982.52,20.3,81,19.47,0.0,1008.24,190.4
2018-08-16 09:10,52.43318,-97.8536983333333,16.3,19.6,332,982.68,20.2,82,19.46,0.1,1008.42,190.4
2018-08-16 09:20,52.4331433333333,-97.8538183333333,16.6,19.0,337,982.84,20.1,81,19.46,0.0,1008.59,190.4
2018-08-16 09:30,52.4331816666667,-97.853725,17.0,19.5,338,983.02,20.1,81,19.46,0.0,1008.78,190.4
2018-08-16 09:40,52.4332016666667,-97.8535716666667,18.3,21.8,338,983.11,20.1,80,19.46,0.0,1008.87,190.4
2018-08-16 09:50,52.4331416666667,-97.85385,18.5,21.6,337,983.29,20.0,81,19.45,0.1,1009.07,190.4
2018-08-16 10:00,52.4331766666667,-97.8536,18.9,23.1,338,983.42,19.9,81,19.45,0.1,1009.22,206.2
2018-08-16 10:10,52.433135,-97.85381,19.4,24.3,339,983.63,19.8,80,19.44,0.0,1009.44,206.2
2018-08-16 10:20,52.4331833333333,-97.85364,20.1,24.5,337,983.74,19.7,83,19.46,0.0,1009.56,206.2
2018-08-16 10:30,52.4331783333333,-97.8537133333333,19.6,23.7,341,984.05,19.6,81,19.44,0.0,1009.88,206.2
2018-08-16 10:40,52.4331333333333,-97.8538783333333,19.0,22.7,344,984.32,19.6,81,19.43,0.0,1010.17,206.2
2018-08-16 10:50,52.433155,-97.85364,19.8,23.8,343,984.44,19.5,81,19.43,0.1,1010.30,206.2
2018-08-16 11:00,52.43314,-97.85389,19.4,23.8,346,984.68,19.4,81,19.42,0.1,1010.56,234.3
2018-08-16 11:10,52.4331433333333,-97.8538283333333,18.4,23.1,349,984.96,19.2,81,19.41,0.0,1010.85,234.3
2018-08-16 11:20,52.4323066666667,-97.8353833333333,18.1,22.6,358,985.57,19.0,81,19.40,4.1,1011.49,234.3
2018-08-16 11:30,52.431885,-97.785415,19.6,22.9,19,986.07,18.9,81,19.34,11.0,1012.01,234.3
2018-08-16 11:40,52.40305,-97.7629333333333,7.5,11.8,17,986.08,18.7,83,19.29,11.5,1012.03,234.3
2018-08-16 11:50,52.37476,-97.73906,7.9,10.7,19,986.23,18.7,83,19.31,11.5,1012.19,234.3
2018-08-16 12:00,52.3464616666667,-97.7153433333333,7.8,10.8,17,986.36,18.8,84,19.26,11.4,1012.33,135.8
2018-08-16 12:10,52.31802,-97.6923616666667,7.4,9.7,17,986.51,18.7,85,19.21,11.4,1012.49,135.8
2018-08-16 12:20,52.2897866666667,-97.6688883333333,8.6,12.9,19,986.68,18.8,82,19.26,11.4,1012.66,135.8
2018-08-16 12:30,52.271965,-97.6526,14.3,21.9,8,986.62,18.9,77,19.43,7.4,1012.60,135.8
2018-08-16 12:40,52.2656483333333,-97.6435616666667,17.9,22.1,5,986.64,18.9,75,19.60,3.0,1012.62,135.8
2018-08-16 12:50,52.2576033333333,-97.637445,16.0,20.4,11,986.88,18.8,74,19.71,3.2,1012.87,135.8
2018-08-16 13:00,52.2501416666667,-97.6304133333333,15.4,19.8,13,987.08,18.8,73,19.76,3.1,1013.09,143.2
2018-08-16 13:10,52.241295,-97.628285,14.9,18.6,9,987.27,18.9,71,19.75,3.2,1013.29,143.2
2018-08-16 13:20,52.2412833333333,-97.6282983333333,16.0,19.3,6,987.03,19.1,71,19.76,0.0,1013.04,143.2
2018-08-16 13:30,52.241225,-97.62821,17.2,20.8,354,987.09,18.9,74,19.76,0.0,1013.11,143.2
2018-08-16 13:40,52.2397433333333,-97.6454083333333,18.3,25.3,346,987.38,18.8,74,19.77,3.8,1013.42,143.2
2018-08-16 13:50,52.2354516666667,-97.69428,21.9,25.9,334,987.65,18.8,72,19.86,10.9,1013.69,143.2
2018-08-16 14:00,52.2312383333333,-97.7427966666667,20.8,24.2,334,987.93,18.7,73,19.83,10.8,1013.98,161.4
2018-08-16 14:10,52.2256366666667,-97.7895266666667,18.8,22.7,337,988.17,18.7,73,19.72,10.5,1014.24,161.4
2018-08-16 14:20,52.206355,-97.82133,13.2,22.7,330,988.62,18.7,73,19.67,9.9,1014.69,161.4
2018-08-16 14:30,52.1797183333333,-97.8455116666667,10.4,15.4,333,988.75,18.9,71,19.64,11.0,1014.82,161.4
2018-08-16 14:40,52.1713033333333,-97.853465,14.5,19.6,359,988.61,19.2,69,19.59,3.5,1014.66,161.4
2018-08-16 14:50,52.1712933333333,-97.8534416666667,15.7,19.4,1,988.47,18.4,73,19.53,0.0,1014.55,161.4
2018-08-16 15:00,52.171385,-97.853575,16.0,20.8,1,988.50,18.2,74,19.54,0.0,1014.59,205.9
2018-08-16 15:10,52.176645,-97.8471233333333,19.2,22.3,350,988.32,18.0,77,19.53,2.4,1014.40,205.9
2018-08-16 15:20,52.1833233333333,-97.840995,19.4,21.9,354,988.37,18.0,77,19.57,2.8,1014.46,205.9
2018-08-16 15:30,52.190695,-97.83519,19.3,22.1,352,988.56,17.9,77,19.64,2.9,1014.67,205.9
2018-08-16 15:40,52.2026283333333,-97.8246383333333,20.1,26.5,1,988.64,17.8,75,19.64,4.9,1014.76,205.9
2018-08-16 15:50,52.2253516666667,-97.7940416666667,24.2,28.4,11,988.48,17.7,73,19.66,10.6,1014.60,205.9
2018-08-16 16:00,52.231095,-97.7423183333333,18.5,21.4,26,989.76,17.7,72,19.63,11.6,1015.91,254.5
2018-08-16 16:10,52.236655,-97.6916783333333,17.9,20.3,28,989.90,17.6,73,19.71,11.3,1016.06,254.5
2018-08-16 16:20,52.2200083333333,-97.6514833333333,10.3,19.2,34,990.20,17.5,73,19.82,10.7,1016.36,254.5
2018-08-16 16:30,52.1999433333333,-97.6126483333333,9.5,12.7,35,990.27,17.5,73,19.86,11.2,1016.42,254.5
2018-08-16 16:40,52.1801966666667,-97.5730733333333,9.4,12.6,32,990.33,17.5,74,19.90,11.3,1016.52,254.5
2018-08-16 16:50,52.1601766666667,-97.5340983333333,8.5,12.5,42,990.39,17.6,74,19.99,11.2,1016.59,254.5
2018-08-16 17:00,52.14057,-97.4947383333333,7.9,11.0,34,990.49,17.6,74,20.07,11.2,1016.70,120.7
2018-08-16 17:10,52.1251166666667,-97.464055,9.0,14.3,16,990.40,17.6,74,20.12,8.8,1016.61,120.7
2018-08-16 17:20,52.119955,-97.4535183333333,13.3,16.7,357,990.31,17.5,75,19.98,3.0,1016.53,120.7
2018-08-16 17:30,52.11401,-97.4430766666667,12.6,17.4,354,990.42,17.5,76,20.06,3.1,1016.64,120.7
2018-08-16 17:40,52.1079516666667,-97.43251,13.2,16.1,349,990.50,17.5,75,20.11,3.2,1016.73,120.7
2018-08-16 17:50,52.10426,-97.4168833333333,12.5,16.9,342,990.66,17.7,75,20.11,3.7,1016.89,120.7
2018-08-16 18:00,52.104215,-97.4170966666667,15.9,19.1,332,990.37,17.8,75,20.14,0.0,1016.58,103.9
2018-08-16 18:10,52.1042716666667,-97.41678,16.3,19.9,330,990.42,17.8,74,20.15,0.1,1016.64,103.9
2018-08-16 18:20,52.11158,-97.457685,24.4,28.8,328,990.18,17.9,75,20.15,9.4,1016.40,103.9
2018-08-16 18:30,52.1271316666667,-97.491835,25.1,30.2,329,990.03,17.8,76,20.04,9.4,1016.24,103.9
2018-08-16 18:40,52.1273083333333,-97.4916383333333,13.7,19.0,344,990.86,17.8,76,19.95,0.1,1017.09,103.9
2018-08-16 18:50,52.1273133333333,-97.49165,12.7,17.8,339,990.97,17.8,75,19.93,0.0,1017.19,103.9
2018-08-16 19:00,52.1227933333333,-97.4904883333333,11.8,17.3,330,991.11,17.9,76,19.96,1.6,1017.34,124.9
2018-08-16 19:10,52.10494,-97.449615,8.4,11.8,16,991.52,17.5,77,19.97,11.1,1017.79,124.9
2018-08-16 19:20,52.0874383333333,-97.4084133333333,8.0,11.2,5,991.57,17.4,77,20.10,11.1,1017.84,124.9
2018-08-16 19:30,52.0691183333333,-97.3695666666667,8.4,11.4,356,991.53,17.4,77,20.08,10.8,1017.79,124.9
2018-08-16 19:40,52.0522666666667,-97.3339033333333,8.5,11.7,356,991.50,17.4,77,20.07,10.0,1017.76,124.9
2018-08-16 19:50,52.0366933333333,-97.2950816666667,10.5,14.6,1,991.47,17.4,79,20.01,10.3,1017.73,124.9
2018-08-16 20:00,52.0244533333333,-97.2486366666667,11.5,15.7,2,991.51,17.4,79,19.92,11.2,1017.77,127.4
2018-08-16 20:10,52.0199566666667,-97.2040466666667,14.6,28.5,359,991.25,17.4,80,19.99,10.0,1017.50,127.4
2018-08-16 20:20,52.0475283333333,-97.184235,25.9,28.9,342,990.02,17.6,78,20.13,10.9,1016.23,127.4
2018-08-16 20:30,52.0748466666667,-97.1637216666667,26.2,28.8,339,990.29,17.5,77,20.26,10.8,1016.51,127.4
2018-08-16 20:40,52.1021683333333,-97.142765,24.3,28.9,338,990.61,17.7,75,20.17,10.9,1016.82,127.4
2018-08-16 20:50,52.1205166666667,-97.1301116666667,21.5,26.6,336,990.51,17.9,73,20.13,7.2,1016.71,127.4
2018-08-16 21:00,52.1202316666667,-97.1297766666667,15.4,18.7,323,990.88,18.1,72,20.20,0.1,1017.10,84.7
2018-08-16 21:10,52.1179116666667,-97.129585,14.5,18.9,331,991.18,18.5,70,20.19,0.8,1017.39,84.7
2018-08-16 21:20,52.1077083333333,-97.1306833333333,12.7,16.0,324,991.56,19.9,67,20.20,3.7,1017.71,84.7
2018-08-16 21:30,52.0990416666667,-97.125605,13.1,15.3,320,991.59,20.3,66,20.20,3.3,1017.74,84.7
2018-08-16 21:40,52.0911216666667,-97.1199516666667,13.3,16.8,323,991.60,19.0,70,20.20,3.1,1017.80,84.7
2018-08-16 21:50,52.0721083333333,-97.1044483333333,9.6,16.3,322,991.72,19.7,65,20.20,7.7,1017.90,84.7
2018-08-16 22:00,52.0444733333333,-97.07956,5.3,9.1,317,991.82,21.0,63,20.23,11.4,1017.93,107.1
2018-08-16 22:10,52.029945,-97.0636633333333,12.3,17.2,323,991.74,21.0,63,20.29,6.3,1017.85,107.1
2018-08-16 22:20,52.022545,-97.05697,14.6,18.5,321,991.75,18.8,70,20.32,3.0,1017.96,107.1
2018-08-16 22:30,52.014655,-97.0533616666667,14.4,17.0,315,991.86,21.1,61,20.35,3.0,1017.96,107.1
2018-08-16 22:40,52.00548,-97.047735,12.3,15.7,326,991.89,22.3,60,20.37,3.5,1017.93,107.1
2018-08-16 22:50,51.99894,-97.0409033333333,13.6,17.8,335,991.64,18.9,69,20.38,2.8,1017.82,107.1
2018-08-16 23:00,51.9989166666667,-97.040875,14.7,17.3,335,991.41,18.7,70,20.38,0.0,1017.57,101.2
2018-08-16 23:10,51.99884,-97.0390933333333,14.2,17.1,333,991.44,18.7,71,20.38,0.4,1017.54,101.2
2018-08-16 23:20,51.9698816666667,-97.0196433333333,3.6,8.7,319,991.82,19.3,68,20.37,11.3,1017.88,101.2
2018-08-16 23:30,51.9408416666667,-96.9989716666667,4.6,7.8,317,991.85,20.2,67,20.32,11.4,1017.93,101.2
2018-08-16 23:40,51.9122466666667,-96.9773583333333,3.7,8.9,315,991.86,19.9,70,20.37,11.4,1017.92,101.2
